Regional Weather Roundup
Issued by NWS

Home | Current Version | Previous Version | Graphics & Text | Print | Product List | Glossary On
Versions: 1 2 3 4 5 6 7 8 9 10 11 12 13 14 15 16 17 18 19 20 21 22 23 24 25 26 27 28 29 30 31 32 33 34 35 36 37 38 39 40 41 42 43 44 45 46 47 48 49 50
000
ASUS43 KOAX 240602
RWRNE

WEATHER ROUNDUP FOR NEBRASKA
NATIONAL WEATHER SERVICE OMAHA NE
100 AM CDT SUN SEP 24 2017

NOTES: SATELLITE DATA IS BEING USED TO AUGMENT CLOUD COVER ABOVE
       12000 FEET.
       "FAIR" INDICATES FEW OR NO CLOUDS BELOW 12,000 FEET WITH NO
       SIGNIFICANT WEATHER AND/OR OBSTRUCTIONS TO VISIBILITY.


NEZ001>004-019>022-054>056-240700-
NEBRASKA PANHANDLE

CITY           SKY/WX    TMP DP  RH WIND       PRES   REMARKS
SCOTTSBLUFF    LGT RAIN  46  43  89 E5        29.97F
6HR MIN TEMP:  46; 6HR MAX TEMP:  47; 6HR PCP:  0.20;

ALLIANCE       LGT RAIN  45  43  93 N8        29.97R
6HR MIN TEMP:  44; 6HR MAX TEMP:  46; 6HR PCP:  0.13;

CHADRON        LGT RAIN  46  44  93 N6        29.99R
6HR MIN TEMP:  46; 6HR MAX TEMP:  47; 6HR PCP:  0.04;

GORDON         LGT RAIN  46  45  93 N9        29.96S
6HR MIN TEMP:  46; 6HR MAX TEMP:  47; 6HR PCP:  0.13;

KIMBALL        LGT RAIN  43  43 100 NE8       29.96F
SIDNEY         LGT RAIN  45  43  93 N10       29.96F
6HR MIN TEMP:  45; 6HR MAX TEMP:  46;

$$

NEZ057>060-069>072-079>082-240700-
SOUTHWEST NEBRASKA

CITY           SKY/WX    TMP DP  RH WIND       PRES   REMARKS
NORTH PLATTE   LGT RAIN  53  53 100 E8        29.88F
6HR MIN TEMP:  52; 6HR MAX TEMP:  55; 6HR PCP:  1.06;

IMPERIAL       LGT RAIN  52  49  89 N14       29.91R
6HR MIN TEMP:  52; 6HR MAX TEMP:  57; 6HR PCP:  0.63;

LEXINGTON      HVY RAIN  58  56  93 NE3       29.90S
MCCOOK         LGT RAIN  58  58 100 E9        29.86F
6HR MIN TEMP:  57; 6HR MAX TEMP:  60; 6HR PCP:  0.91;

OGALLALA       RAIN      51  49  93 N12       29.93S
$$

NEZ005>010-023>029-035>040-094-240700-
NORTH CENTRAL NEBRASKA

CITY           SKY/WX    TMP DP  RH WIND       PRES   REMARKS
VALENTINE      RAIN      51  49  92 NW5       29.94F
6HR MIN TEMP:  51; 6HR MAX TEMP:  53; 6HR PCP:  0.28;

AINSWORTH      HVY RAIN  50  50 100 N7        29.92F
BROKEN BOW     LGT RAIN  55  54  96 N9        29.90F
6HR MIN TEMP:  54; 6HR MAX TEMP:  57; 6HR PCP:  0.47;

O`NEILL        FOG       55  55 100 SW8       29.93R VSB 1/2
ORD            MOCLDY    57  55  93 NW3       29.88S
6HR MIN TEMP:  55; 6HR MAX TEMP:  57; 6HR PCP:  0.08;

THEDFORD       RAIN      50  49  97 N5        29.93R
$$

NEZ041-046>049-061>064-073>077-083>087-240700-
SOUTH CENTRAL NEBRASKA

CITY           SKY/WX    TMP DP  RH WIND       PRES   REMARKS
GRAND ISLAND   PTCLDY    59  58  96 CALM      29.88S
6HR MIN TEMP:  58; 6HR MAX TEMP:  81;

AURORA         PTCLDY    70  61  73 S9        29.88S
HASTINGS       PTCLDY    74  60  61 S10       29.88S
6HR MIN TEMP:  65; 6HR MAX TEMP:  85;

HEBRON         CLEAR     75  62  62 S9        29.89R
HOLDREGE       CLOUDY    60  59  94 N5        29.89F
KEARNEY        MOCLDY    62  59  90 NW3       29.89R
YORK           PTCLDY    73  63  68 S10       29.89R
$$

NEZ011>018-030>034-042>045-240700-
NORTHEAST NEBRASKA

CITY           SKY/WX    TMP DP  RH WIND       PRES   REMARKS
NORFOLK        PTCLDY    57  57 100 CALM      29.88F
6HR MIN TEMP:  57; 6HR MAX TEMP:  82;

ALBION         PTCLDY    57  56  95 CALM      29.88F
BLAIR          PTCLDY    77  65  67 S12       29.91S
COLUMBUS       PTCLDY    75  63  66 SE10      29.88S
FREMONT        CLOUDY    76  64  65 SE12      29.90S
TEKAMAH        MOCLDY    68  64  87 SE5       29.89S
6HR MIN TEMP:  68; 6HR MAX TEMP:  84;

WAYNE          PTCLDY    58  56  91 CALM      29.90S
$$

NEZ050>053-065>068-078-088>093-240700-
SOUTHEAST NEBRASKA

CITY           SKY/WX    TMP DP  RH WIND       PRES   REMARKS
LINCOLN        MOCLDY    76  63  64 S12       29.89S
6HR MIN TEMP:  76; 6HR MAX TEMP:  86;

OMAHA EPPLEY   MOCLDY    76  65  68 S12       29.91R
6HR MIN TEMP:  75; 6HR MAX TEMP:  87;

BEATRICE       CLEAR     76  64  65 SE12      29.90F
FALLS CITY     CLEAR     71  66  84 SE7       29.92S
6HR MIN TEMP:  70; 6HR MAX TEMP:  85;

NEBRASKA CITY  PTCLDY    73  68  85 S8        29.93S
PLATTSMOUTH    CLOUDY    73  67  81 SE8       29.92S
$$

NEZ044-045-051>053-067-240700-
OMAHA AREA

CITY           SKY/WX    TMP DP  RH WIND       PRES   REMARKS
OMAHA EPPLEY   MOCLDY    76  65  68 S12       29.91R
6HR MIN TEMP:  75; 6HR MAX TEMP:  87;

BLAIR          PTCLDY    77  65  67 S12       29.91S
FREMONT        CLOUDY    76  64  65 SE12      29.90S
MILLARD        CLOUDY    78  67  70 SE8       29.91R
OFFUTT AFB     PTCLDY    71  65  82 SE8       29.91R
PLATTSMOUTH    CLOUDY    73  67  81 SE8       29.92S
WAHOO          FAIR      74  64  69 S7        29.90R
$$




USA.gov is the U.S. government's official web portal to all federal, state and local government web resources and services.